When you browse on this site, cookies collect data to enhance your experience and personalize the content and advertising you see.
Visit our Privacy Policy to learn more. By continuing to use the site, you agree to this use of cookies and data.
  • In France
  • List of Countries
  • For 7 days
  • Water Temperature
  • Weather Map
  • Weather Widgets
  • user-avatar
    Login

    Hourly Weather Mutare

    Today, 26 August, Monday

    Time Temperature Precipitation Wind Pressure Humidity
    00:00 +14°C° 0 mm 1 mps 656 mmHg 89%
    01:00 +14°C° 0 mm 1 mps 656 mmHg 91%
    02:00 +13°C° 0 mm 1 mps 656 mmHg 92%
    03:00 +13°C° 0 mm 1 mps 655 mmHg 91%
    04:00 +12°C° 0 mm 0 mps 655 mmHg 91%
    05:00 +12°C° 0 mm 0 mps 655 mmHg 90%
    06:00 +14°C° 0 mm 0 mps 656 mmHg 78%
    07:00 +17°C° 0 mm 0 mps 657 mmHg 66%
    08:00 +19°C° 0 mm 0 mps 659 mmHg 53%
    09:00 +22°C° 0 mm 0 mps 659 mmHg 44%
    10:00 +27°C° 0 mm 1 mps 659 mmHg 34%
    11:00 +30°C° 0 mm 1 mps 660 mmHg 25%
    12:00 +30°C° 0 mm 1 mps 659 mmHg 23%
    13:00 +31°C° 0 mm 2 mps 658 mmHg 22%
    14:00 +31°C° 0 mm 2 mps 658 mmHg 21%
    15:00 +30°C° 0 mm 2 mps 657 mmHg 23%
    16:00 +28°C° 0 mm 2 mps 656 mmHg 25%
    17:00 +27°C° 0 mm 2 mps 656 mmHg 28%
    18:00 +25°C° 0 mm 2 mps 656 mmHg 34%
    19:00 +23°C° 0 mm 2 mps 656 mmHg 40%
    20:00 +19°C° 0 mm 3 mps 656 mmHg 47%
    21:00 +19°C° 0 mm 2 mps 656 mmHg 49%
    22:00 +18°C° 0 mm 2 mps 655 mmHg 52%
    23:00 +17°C° 0 mm 2 mps 655 mmHg 55%

    Tomorrow, 27 August, Tuesday

    Time Temperature Precipitation Wind Pressure Humidity
    00:00 +16°C° 0 mm 1 mps 655 mmHg 58%
    01:00 +15°C° 0 mm 1 mps 655 mmHg 62%
    02:00 +15°C° 0 mm 1 mps 655 mmHg 65%
    03:00 +14°C° 0 mm 1 mps 654 mmHg 67%
    04:00 +14°C° 0 mm 1 mps 654 mmHg 68%
    05:00 +14°C° 0 mm 1 mps 654 mmHg 69%
    06:00 +15°C° 0 mm 0 mps 655 mmHg 60%
    07:00 +18°C° 0 mm 0 mps 656 mmHg 50%
    08:00 +21°C° 0 mm 0 mps 657 mmHg 40%
    09:00 +25°C° 0 mm 1 mps 658 mmHg 35%
    10:00 +28°C° 0 mm 1 mps 658 mmHg 29%
    11:00 +30°C° 0 mm 2 mps 658 mmHg 23%
    12:00 +31°C° 0 mm 2 mps 658 mmHg 22%
    13:00 +31°C° 0 mm 2 mps 657 mmHg 21%
    14:00 +31°C° 0 mm 2 mps 656 mmHg 20%
    15:00 +30°C° 0 mm 2 mps 656 mmHg 22%
    16:00 +29°C° 0 mm 3 mps 655 mmHg 23%
    17:00 +28°C° 0 mm 3 mps 655 mmHg 25%
    18:00 +26°C° 0 mm 3 mps 655 mmHg 30%
    19:00 +22°C° 0 mm 3 mps 655 mmHg 36%
    20:00 +20°C° 0 mm 3 mps 655 mmHg 41%
    21:00 +19°C° 0 mm 3 mps 655 mmHg 45%
    22:00 +18°C° 0 mm 2 mps 655 mmHg 49%
    23:00 +17°C° 0 mm 2 mps 655 mmHg 53%

    Day after tomorrow, 28 August, Wednesday

    Time Temperature Precipitation Wind Pressure Humidity
    00:00 +16°C° 0 mm 2 mps 654 mmHg 61%
    01:00 +15°C° 0 mm 1 mps 654 mmHg 69%
    02:00 +14°C° 0 mm 1 mps 654 mmHg 77%
    03:00 +14°C° 0 mm 1 mps 653 mmHg 79%
    04:00 +14°C° 0 mm 1 mps 653 mmHg 80%
    05:00 +13°C° 0 mm 1 mps 653 mmHg 82%
    06:00 +16°C° 0 mm 1 mps 654 mmHg 69%
    07:00 +20°C° 0 mm 1 mps 655 mmHg 57%
    08:00 +22°C° 0 mm 1 mps 656 mmHg 44%
    09:00 +25°C° 0 mm 1 mps 657 mmHg 37%
    10:00 +28°C° 0 mm 1 mps 657 mmHg 29%
    11:00 +31°C° 0 mm 2 mps 658 mmHg 22%
    12:00 +31°C° 0 mm 2 mps 657 mmHg 21%
    13:00 +31°C° 0 mm 3 mps 656 mmHg 21%
    14:00 +32°C° 0 mm 4 mps 656 mmHg 20%
    15:00 +30°C° 0 mm 4 mps 655 mmHg 22%
    16:00 +28°C° 0 mm 4 mps 655 mmHg 24%
    17:00 +27°C° 0 mm 4 mps 655 mmHg 27%
    18:00 +25°C° 0 mm 3 mps 655 mmHg 31%
    19:00 +22°C° 0 mm 3 mps 655 mmHg 35%
    20:00 +20°C° 0 mm 3 mps 655 mmHg 39%
    21:00 +19°C° 0 mm 2 mps 655 mmHg 44%
    22:00 +18°C° 0 mm 2 mps 655 mmHg 49%
    23:00 +17°C° 0 mm 2 mps 655 mmHg 54%

    29 August, Thursday

    Time Temperature Precipitation Wind Pressure Humidity
    00:00 +16°C° 0 mm 2 mps 655 mmHg 65%
    01:00 +15°C° 0 mm 2 mps 654 mmHg 76%
    02:00 +14°C° 0 mm 2 mps 654 mmHg 87%
    03:00 +14°C° 0 mm 2 mps 654 mmHg 90%
    04:00 +14°C° 0 mm 2 mps 654 mmHg 92%
    05:00 +14°C° 0 mm 2 mps 654 mmHg 94%
    06:00 +15°C° 0 mm 2 mps 655 mmHg 84%
    07:00 +17°C° 0 mm 2 mps 656 mmHg 73%
    08:00 +19°C° 0 mm 2 mps 657 mmHg 63%
    09:00 +21°C° 0 mm 3 mps 657 mmHg 52%
    10:00 +24°C° 0 mm 3 mps 657 mmHg 42%
    11:00 +26°C° 0 mm 4 mps 658 mmHg 31%
    12:00 +27°C° 0 mm 4 mps 657 mmHg 29%
    13:00 +28°C° 0 mm 4 mps 657 mmHg 27%
    14:00 +28°C° 0 mm 4 mps 656 mmHg 25%
    15:00 +27°C° 0 mm 4 mps 656 mmHg 28%
    16:00 +26°C° 0 mm 4 mps 655 mmHg 30%
    17:00 +25°C° 0 mm 4 mps 655 mmHg 33%
    18:00 +22°C° 0 mm 4 mps 655 mmHg 41%
    19:00 +20°C° 0 mm 3 mps 655 mmHg 48%
    20:00 +18°C° 0 mm 2 mps 655 mmHg 56%
    21:00 +17°C° 0 mm 2 mps 655 mmHg 66%
    22:00 +16°C° 0 mm 2 mps 655 mmHg 75%
    23:00 +15°C° 0 mm 2 mps 655 mmHg 85%

    30 August, Friday

    Time Temperature Precipitation Wind Pressure Humidity
    00:00 +15°C° 0 mm 2 mps 654 mmHg 88%
    01:00 +15°C° 0 mm 2 mps 654 mmHg 90%
    02:00 +14°C° 0 mm 2 mps 654 mmHg 93%
    03:00 +14°C° 0 mm 2 mps 654 mmHg 93%
    04:00 +14°C° 0 mm 2 mps 653 mmHg 92%
    05:00 +14°C° 0 mm 2 mps 653 mmHg 92%
    06:00 +15°C° 0 mm 2 mps 654 mmHg 83%
    07:00 +17°C° 0 mm 2 mps 655 mmHg 74%
    08:00 +18°C° 0 mm 2 mps 655 mmHg 65%
    09:00 +21°C° 0 mm 2 mps 656 mmHg 51%
    10:00 +25°C° 0 mm 2 mps 656 mmHg 37%
    11:00 +28°C° 0 mm 3 mps 656 mmHg 24%
    12:00 +29°C° 0 mm 3 mps 655 mmHg 22%
    13:00 +30°C° 0 mm 3 mps 655 mmHg 20%
    14:00 +30°C° 0 mm 3 mps 654 mmHg 17%
    15:00 +29°C° 0 mm 3 mps 654 mmHg 19%
    16:00 +28°C° 0 mm 2 mps 653 mmHg 21%
    17:00 +27°C° 0 mm 2 mps 653 mmHg 23%
    18:00 +25°C° 0 mm 2 mps 653 mmHg 29%
    19:00 +21°C° 0 mm 2 mps 653 mmHg 36%
    20:00 +19°C° 0 mm 2 mps 653 mmHg 42%
    21:00 +18°C° 0 mm 2 mps 652 mmHg 49%
    22:00 +18°C° 0 mm 1 mps 652 mmHg 55%
    23:00 +16°C° 0 mm 1 mps 652 mmHg 62%

    31 August, Saturday

    Time Temperature Precipitation Wind Pressure Humidity
    00:00 +15°C° 0 mm 1 mps 651 mmHg 63%
    01:00 +15°C° 0 mm 1 mps 651 mmHg 65%
    02:00 +15°C° 0 mm 1 mps 650 mmHg 66%
    03:00 +14°C° 0 mm 1 mps 650 mmHg 65%
    04:00 +14°C° 0 mm 1 mps 650 mmHg 65%
    05:00 +14°C° 0 mm 1 mps 650 mmHg 64%
    06:00 +18°C° 0 mm 1 mps 651 mmHg 54%
    07:00 +21°C° 0 mm 1 mps 653 mmHg 44%
    08:00 +24°C° 0 mm 1 mps 654 mmHg 34%
    09:00 +27°C° 0 mm 1 mps 654 mmHg 27%
    10:00 +31°C° 0 mm 1 mps 655 mmHg 20%
    11:00 +34°C° 0 mm 1 mps 655 mmHg 13%
    12:00 +35°C° 0 mm 1 mps 654 mmHg 12%
    13:00 +36°C° 0 mm 2 mps 654 mmHg 11%
    14:00 +36°C° 0 mm 2 mps 653 mmHg 11%
    15:00 +35°C° 0 mm 2 mps 653 mmHg 12%
    16:00 +32°C° 0 mm 2 mps 652 mmHg 13%
    17:00 +31°C° 0 mm 2 mps 652 mmHg 14%
    18:00 +29°C° 0 mm 2 mps 652 mmHg 17%
    19:00 +26°C° 0 mm 2 mps 652 mmHg 20%
    20:00 +23°C° 0 mm 2 mps 652 mmHg 24%
    21:00 +23°C° 0 mm 2 mps 652 mmHg 27%
    22:00 +21°C° 0 mm 2 mps 652 mmHg 31%
    23:00 +20°C° 0 mm 2 mps 652 mmHg 35%
    Show more